Flag for Norway Weather past 2 weeks in Bergen, Norway

Now
41 °F

Quite cool.


Feels Like: 38 °F
Forecast: 38 / 42 °F
Wind: 6 mph from South

Location: Bergen / Florida

Current Time: Feb 28, 2015 at 1:54:14 AM

Latest Report: Feb 28, 2015 at 1:00 AM


Visibility: N/A

Pressure: 29.73 "Hg

Humidity: 74%

Dew point: 34 °F

Location of BergenLocation

Historic Weather in Bergen — Graph

°F

Bergen temperature yesterday

Maximum temperature yesterday: 43 °F (at 4:00 PM)
Minimum temperature yesterday: 37 °F (at 5:00 AM)
Average temperature yesterday: 40 °F

Past Weeks' High & Low Weather Summary

 TemperatureHumidityPressure
High50 °F (Feb 15, 1:00 PM)90% (Feb 18, 5:00 PM)30.19 "Hg (Feb 18, 5:00 PM)
Low31 °F (Feb 15, 6:00 AM)34% (Feb 15, 3:00 PM)28.58 "Hg (Feb 23, 7:00 AM)
Average40 °F77%29.62 "Hg
* Reported Feb 13 1:00 AM — Feb 28 1:00 AM, Bergen, Weather by CustomWeather, © 2015

Note: Actual official high and low records may vary slightly from our data, if they occured in-between our weather recording intervals... More about our weather records

Advertising

Bergen weather history for previous 24 hours

 ConditionsComfort  
Time TempWeatherWind HumidityBarometerVisibility
1:00 AM
Sat, Feb 28
41 °FQuite cool.6 mph74%29.73 "HgN/A
12:00 AM41 °FQuite cool.8 mph79%29.75 "HgN/A
11:00 PM
Fri, Feb 27
41 °FQuite cool.6 mph79%29.76 "HgN/A
9:00 PM42 °FQuite cool.5 mph81%29.77 "HgN/A
8:00 PM42 °FQuite cool.6 mph82%29.78 "HgN/A
7:00 PM42 °FSprinkles. Overcast.6 mph81%29.77 "Hg6 mi
6:00 PM42 °FQuite cool.7 mph79%29.75 "HgN/A
5:00 PM42 °FQuite cool.8 mph78%29.75 "HgN/A
4:00 PM43 °FOvercast.6 mph78%29.73 "Hg17 mi
3:00 PM42 °FQuite cool.8 mph79%29.72 "HgN/A
2:00 PM41 °FQuite cool.6 mph80%29.72 "HgN/A
1:00 PM40 °FSprinkles. Low clouds.5 mph78%29.71 "Hg6 mi
12:00 PM41 °FQuite cool.7 mph72%29.70 "HgN/A
11:00 AM41 °FQuite cool.6 mph72%29.70 "HgN/A
10:00 AM41 °FPartly sunny.5 mph71%29.69 "Hg25 mi
9:00 AM38 °FChilly.5 mph76%29.68 "HgN/A
8:00 AM38 °FChilly.5 mph79%29.67 "HgN/A
7:00 AM38 °FPassing clouds.6 mph80%29.66 "Hg16 mi
6:00 AM37 °FChilly.3 mph85%29.65 "HgN/A
5:00 AM37 °FChilly.5 mph86%29.64 "HgN/A
2:00 AM38 °FChilly.N/A83%29.62 "HgN/A
1:00 AM38 °FChilly.5 mph84%29.61 "HgN/A
Weather by CustomWeather, © 2015

See weather overviewHow to use our weather pages